EXPLORER 38 DEB, 28608

Orbit data source: Space-Track

EXPLORER 38 DEB, 28608 is space debris originally from a launch on Thu, 04 Jul 1968 UTC launched from the Air Force Western Test Range (AFWTR). Debris objects in space refer to the collection of defunct objects orbiting the Earth. Examples of debris include non-operational satellites, rocket bodies, and fragments generated from explosions, collisions, or faulty payload assembly.

Loading next visibility...
Identifier
28608, 1968-055M
Orbit
Active
Country
Flag of USUS
Related business
Manufacturer
Unknown
Mission
Spacecraft
Bus & Motor
Unknown
Mass
Unknown
Launch date (UTC)
1968-07-04 (57 years ago)
Launch vehicle
Unknown
Launch site
Air Force Western Test Range (AFWTR)
Object type
Payload
Rocket body
Debris
Shape & HBR
Cyl + 1 Cable, 4.1 m
Radar Cross Section
8.200 m², Medium (>0.1 m² and < 1m²)

Expand to show TLE details & history
Last TLE update: 1 day ago

TLE from 1 day ago
0 EXPLORER 38 DEB
1 28608U 68055M   25257.97099763 -.00000010  00000-0  00000-0 0  9991
2 28608 120.8810  16.9511 0015168 258.3143  80.2949  6.42254046278996
Epoch: 2025-09-14T23:18Z
TLE epoch observation values (Epoch: 2025-09-14T23:18:14.195Z)
Latitude
-18.2036°
Longitude
44.51407°
Altitude
5,849.273 km
Speed
5.711 km/s
True Right ascension
01h 53m 01s
True Declination
-18° 08' 39"
Sunlit
Object was in daylight at epoch
Visualization orbit readout
Latitude
Unknown
Longitude
Unknown
Altitude
Unknown
Speed
Unknown
Apparent Right ascension
Unknown
Apparent Declination
Unknown
Sunlit
N/A
Visualization observer readout
Local Sidereal Time
17:55:46
Azimuth
Unknown
Elevation
Unknown
Doppler factor
Unknown
Orbital elements
Apogee altitude
5,865.46 km
Perigee altitude
5,828.374 km
Semi-major axis
12,225.054 km
Eccentricity
0.00152
Inclination
120.881°
RAAN
16.9511°
Arg. of periapsis
258.3143°
True anomaly
80.46628°
Mean anomaly
80.2949°
Eccentric anomaly
80.38058°
Mean motion
1.60571 °/min
Orbital period
224.2 mins
BSTAR
0
Loading maneuver chart data...
Computing Atmospheric mass density...
Loading historical data...
Loading historical data...
Loading historical data...
Loading historical data...
Loading historical data...
Loading historical data...
Loading historical data...

Documentation

Showing up to 5 results
|